Change the Weather History Date:

Wednesday, March 27, 2013

  Actual Average Record
Temperature  
Mean Temperature 84 °F -  
Max Temperature 92 °F 91 °F 104 °F (1998)
Min Temperature 76 °F 77 °F 70 °F (2014)
Cooling Degree Days 19    
Growing Degree Days 34 (Base 50)    
Moisture  
Dew Point 75 °F    
Average Humidity 71    
Maximum Humidity 94    
Minimum Humidity 55    
Precipitation  
Precipitation 0.00 in 0.19 in - ()
Sea Level Pressure  
Sea Level Pressure 29.80 in    
Wind  
Wind Speed 6 mph ()    
Max Wind Speed 20 mph    
Max Gust Speed -    
Visibility 5.1 miles    
Events      
Averages and records for this station are not official NWS values.
T = Trace of Precipitation, MM = Missing Value Source: Averaged Metar Reports

Daily Weather History Graph

Daily Weather History Graph

Search for Another Location

Airport or City:

Trip Planner

Search our weather history database for the weather conditions in past years. The results will help you decide how hot, cold, wet, or windy it might be!

Date:

Astronomy

Mar. 27, 2013 Rise Set
Actual Time 6:27 AM ICT 6:36 PM ICT
Civil Twilight 6:06 AM ICT 6:57 PM ICT
Nautical Twilight 5:42 AM ICT 7:22 PM ICT
Astronomical Twilight 5:17 AM ICT 7:46 PM ICT
Moon 6:35 PM ICT (3/27) 6:03 AM ICT (3/27)
Length of Visible Light 12h 51m
Length of Day
12h 09m
Full, 100% of the Moon is Illuminated
Mar 27
Full
Mar 27
Full
Apr 3
Last Quarter
Apr 10
New
Apr 18
First Quarter

Hourly Weather History & Observations

Time (ICT) Temp. Heat Index Dew Point Humidity Pressure Visibility Wind Dir Wind Speed Gust Speed Precip Events Conditions
12:00 AM 84.2 °F 92.3 °F 75.2 °F 74% 29.83 in 5.6 mi WNW 4.6 mph - N/A   Scattered Clouds
12:30 AM 82.4 °F 89.5 °F 75.2 °F 79% 29.80 in 5.6 mi West 4.6 mph - N/A   Scattered Clouds
1:00 AM 84 °F - 77 °F 74% 29.78 in 6 mi Calm Calm - -   Scattered Clouds
1:00 AM 82.4 °F 88.2 °F 73.4 °F 74% 29.80 in 5.0 mi WNW 4.6 mph - N/A   Scattered Clouds
1:30 AM 82.4 °F 88.2 °F 73.4 °F 74% 29.80 in 5.0 mi West 5.8 mph - N/A   Scattered Clouds
2:00 AM 82.4 °F 89.5 °F 75.2 °F 79% 29.77 in 5.0 mi West 3.5 mph - N/A   Scattered Clouds
2:30 AM 82.4 °F 88.2 °F 73.4 °F 74% 29.77 in 4.3 mi WNW 5.8 mph - N/A   Scattered Clouds
3:00 AM 82.4 °F 89.5 °F 75.2 °F 79% 29.77 in 4.3 mi WNW 3.5 mph - N/A   Scattered Clouds
4:00 AM 78.8 °F - 75.2 °F 89% 29.77 in 4.3 mi Variable 1.2 mph - N/A   Scattered Clouds
4:30 AM 78.8 °F - 75.2 °F 89% 29.77 in 5.0 mi Calm Calm - N/A   Scattered Clouds
5:00 AM 78.8 °F - 75.2 °F 89% 29.77 in 5.0 mi Calm Calm - N/A   Scattered Clouds
5:30 AM 78.8 °F - 75.2 °F 89% 29.80 in 5.0 mi Calm Calm - N/A   Scattered Clouds
6:00 AM 77.0 °F - 75.2 °F 94% 29.80 in 5.0 mi Calm Calm - N/A   Scattered Clouds
6:30 AM 77.0 °F - 75.2 °F 94% 29.80 in 5.0 mi Calm Calm - N/A   Scattered Clouds
7:00 AM 78 °F - 76 °F 92% 29.78 in 5 mi Calm Calm - -   Mist
7:00 AM 78.8 °F - 75.2 °F 89% 29.83 in 4.3 mi Calm Calm - N/A   Mostly Cloudy
7:30 AM 80.6 °F 86.2 °F 75.2 °F 84% 29.83 in 4.3 mi Calm Calm - N/A   Mostly Cloudy
8:00 AM 82.4 °F 89.5 °F 75.2 °F 79% 29.86 in 4.3 mi Calm Calm - N/A   Mostly Cloudy
8:30 AM 86.0 °F 95.1 °F 75.2 °F 70% 29.86 in 4.3 mi NW 4.6 mph - N/A   Mostly Cloudy
9:00 AM 87.8 °F 97.6 °F 75.2 °F 66% 29.89 in 5.0 mi West 6.9 mph - N/A   Mostly Cloudy
9:30 AM 87.8 °F 97.6 °F 75.2 °F 66% 29.89 in 5.0 mi WNW 11.5 mph - N/A   Mostly Cloudy
10:00 AM 89.6 °F 98.2 °F 73.4 °F 59% 29.89 in 5.0 mi WNW 11.5 mph - N/A   Mostly Cloudy
10:30 AM 91.4 °F 102.5 °F 75.2 °F 59% 29.89 in 5.0 mi WNW 13.8 mph - N/A   Mostly Cloudy
11:00 AM 91.4 °F 102.5 °F 75.2 °F 59% 29.86 in 5.0 mi West 10.4 mph - N/A   Mostly Cloudy
11:30 AM 89.6 °F 98.2 °F 73.4 °F 59% 29.86 in 5.0 mi WNW 11.5 mph - N/A   Mostly Cloudy
12:00 PM 89.6 °F 98.2 °F 73.4 °F 59% 29.86 in 5.0 mi WNW 15.0 mph - N/A   Mostly Cloudy
12:30 PM 91.4 °F 102.5 °F 75.2 °F 59% 29.83 in 5.0 mi West 11.5 mph - N/A   Mostly Cloudy
1:00 PM 90 °F - 78 °F 61% 29.81 in 5 mi NW 3.5 mph - -   Mist
1:00 PM 89.6 °F 98.2 °F 73.4 °F 59% 29.83 in 5.0 mi West 13.8 mph - N/A   Mostly Cloudy
1:30 PM 89.6 °F 102.2 °F 77.0 °F 66% 29.80 in 5.0 mi West 13.8 mph - N/A   Mostly Cloudy
2:00 PM 91.4 °F 102.5 °F 75.2 °F 59% 29.80 in 5.0 mi West 15.0 mph - N/A   Mostly Cloudy
2:30 PM 89.6 °F 99.8 °F 75.2 °F 62% 29.77 in 5.0 mi WNW 13.8 mph - N/A   Mostly Cloudy
3:00 PM 89.6 °F 99.8 °F 75.2 °F 62% 29.77 in 5.0 mi WNW 19.6 mph - N/A   Mostly Cloudy
3:30 PM 89.6 °F 99.8 °F 75.2 °F 62% 29.77 in 5.0 mi West 19.6 mph - N/A   Mostly Cloudy
4:00 PM 89.6 °F 98.2 °F 73.4 °F 59% 29.74 in 5.0 mi WNW 17.3 mph - N/A   Mostly Cloudy
4:30 PM 89.6 °F 98.2 °F 73.4 °F 59% 29.74 in 5.0 mi NW 13.8 mph - N/A   Mostly Cloudy
5:00 PM 87.8 °F 97.6 °F 75.2 °F 66% 29.74 in 5.0 mi WNW 16.1 mph - N/A   Mostly Cloudy
5:30 PM 87.8 °F 95.6 °F 73.4 °F 62% 29.74 in 5.0 mi WNW 16.1 mph - N/A   Mostly Cloudy
6:00 PM 86.0 °F 93.4 °F 73.4 °F 66% 29.74 in 5.0 mi West 13.8 mph - N/A   Mostly Cloudy
6:30 PM 86.0 °F 93.4 °F 73.4 °F 66% 29.74 in 5.0 mi West 16.1 mph - N/A   Scattered Clouds
7:00 PM 87 °F - 73 °F 55% 29.72 in 6 mi West 11.5 mph - -   Haze
7:00 PM 86.0 °F 93.4 °F 73.4 °F 66% 29.74 in 5.0 mi West 11.5 mph - N/A   Scattered Clouds
7:30 PM 84.2 °F 92.3 °F 75.2 °F 74% 29.77 in 5.0 mi WNW 11.5 mph - N/A   Scattered Clouds
8:00 PM 84.2 °F 90.9 °F 73.4 °F 70% 29.77 in 5.0 mi WNW 11.5 mph - N/A   Scattered Clouds
8:30 PM 84.2 °F 92.3 °F 75.2 °F 74% 29.80 in 5.6 mi WNW 9.2 mph - N/A   Scattered Clouds
9:00 PM 84.2 °F 90.9 °F 73.4 °F 70% 29.80 in 5.6 mi West 9.2 mph - N/A   Scattered Clouds
9:30 PM 84.2 °F 92.3 °F 75.2 °F 74% 29.80 in 5.6 mi WNW 8.1 mph - N/A   Scattered Clouds
10:00 PM 84.2 °F 92.3 °F 75.2 °F 74% 29.83 in 5.6 mi North 9.2 mph - N/A   Scattered Clouds
10:30 PM 84.2 °F 92.3 °F 75.2 °F 74% 29.83 in 6.2 mi WNW 3.5 mph - N/A   Scattered Clouds
11:00 PM 82.4 °F 88.2 °F 73.4 °F 74% 29.83 in 6.2 mi West 5.8 mph - N/A   Scattered Clouds